Location: ????????
(55.4000°N, 39.1167°E)
Time: 07:05:10
(UTC+00:00)

NOSS 0 Rocket - Pass Details

Date: 19 May 2025
Orbit: 933 x 955 km, 70.0° (Epoch: 15 June)

Event Time Altitude Azimuth Distance (km) Brightness Sun altitude
Rises 23:11:11 0° 323° (NW) 3,645 7.4 -11.0°
Reaches altitude 10° 23:13:48 10° 318° (NW) 2,694 6.6 -10.8°
Maximum altitude 23:19:46 49° 246° (WSW) 1,218 4.2 -10.4°
Drops below altitude 10° 23:25:42 10° 173° (S) 2,670 5.8 -10.0°
Enters shadow 23:27:24 - 170° (S) 3,286 6.3 -9.9°
